Simultaneous Nadir Overpasses (SNOs) Predictions

Prediction of SNOs near US between AQUA and NPP Satellite Orbit:

Table of predicted SNOs near US for the next 10.0 days since TLE Epoch: 4/5/2014
Index Date (AQUA) Time (AQUA) AQUA Lat,Lon Date (NPP) Time (NPP) NPP Lat,Lon Distance(km) Time Diff (sec)
1 04/06/2014 07:46:30 20.02, -89.58 04/06/2014 07:39:58 20.00, -89.44 14.96 392
2 04/06/2014 09:21:06 35.48,-110.36 04/06/2014 09:17:03 35.50,-110.62 23.65 243
3 04/09/2014 06:31:05 46.54, -65.03 04/09/2014 06:35:16 46.96, -66.98 155.83 251
4 04/09/2014 08:09:01 49.92, -88.41 04/09/2014 08:15:46 50.41, -90.87 183.66 405
5 04/11/2014 19:07:07 49.96, -92.55 04/11/2014 19:06:08 49.59, -94.55 149.73 59
6 04/11/2014 20:44:27 44.44,-115.15 04/11/2014 20:46:00 43.93,-117.64 206.60 93
7 04/14/2014 06:56:51 20.06, -77.17 04/14/2014 06:49:31 19.97, -76.78 42.05 440
8 04/14/2014 08:32:17 32.51, -98.79 04/14/2014 08:27:27 32.50, -98.85 5.51 290
9 04/14/2014 10:08:36 41.73,-120.77 04/14/2014 10:06:17 41.81,-121.27 42.76 139




NCC Satellite Simultaneous Nadir Overpasses (SNOs) Prediction Service
